Oak Ridge, TN

8:00 AM EST on December 10, 2016 (GMT -0500)
Oak Ridge

Weather History for KOQT - December, 2013

Change the Weather History Date:

Saturday, December 7, 2013

  Actual Average (KTYS) Record (KTYS)
Temperature  
Mean Temperature 37 °F -  
Max Temperature 39 °F 51 °F 77 °F (1951)
Min Temperature 35 °F 32 °F 6 °F (1880)
Degree Days  
Heating Degree Days 28    
Moisture  
Dew Point 32 °F    
Average Humidity 82    
Maximum Humidity 89    
Minimum Humidity 76    
Precipitation  
Precipitation 0.00 in - - ()
Sea Level Pressure  
Sea Level Pressure 30.39 in    
Wind  
Wind Speed 5 mph (NE)    
Max Wind Speed 9 mph    
Max Gust Speed 17 mph    
Visibility 10 miles    
Events      
Averages and records for this station are not official NWS values.
T = Trace of Precipitation, MM = Missing Value Source: NWS Daily Summary

Daily Weather History Graph

Daily Weather History Graph

Search for Another Location

Airport or City:

Trip Planner

Search our weather history database for the weather conditions in past years. The results will help you decide how hot, cold, wet, or windy it might be!

Date:

Astronomy

Dec. 07, 2013 Rise Set
Actual Time 7:34 AM EST 5:22 PM EST
Civil Twilight 7:06 AM EST 5:50 PM EST
Nautical Twilight 6:34 AM EST 6:22 PM EST
Astronomical Twilight 6:03 AM EST 6:53 PM EST
Moon 11:25 AM EST (12/7) 10:55 PM EST (12/7)
Length of Visible Light 10h 44m
Length of Day
9h 48m
Waxing Crescent, 29% of the Moon is Illuminated
Dec 7
Waxing Crescent
Dec 9
First Quarter
Dec 17
Full
Dec 25
Last Quarter
Jan 1
New

Hourly Weather History & Observations

Time (EST) Temp. Windchill Dew Point Humidity Pressure Visibility Wind Dir Wind Speed Gust Speed Precip Events Conditions
12:03 AM 39.0 °F - 36.0 °F 89% 30.21 in 10.0 mi Calm Calm - N/A   Overcast
12:53 AM 39.0 °F 35.7 °F 36.0 °F 89% 30.25 in 10.0 mi NE 4.6 mph - N/A   Overcast
1:18 AM 39.0 °F 34.8 °F 36.0 °F 89% 30.24 in 10.0 mi ENE 5.8 mph - N/A   Overcast
1:53 AM 39.0 °F 36.8 °F 36.0 °F 89% 30.27 in 10.0 mi ENE 3.5 mph - N/A   Overcast
2:01 AM 39.0 °F 35.7 °F 36.0 °F 89% 30.26 in 10.0 mi East 4.6 mph - N/A   Overcast
2:53 AM 37.9 °F 33.5 °F 35.1 °F 89% 30.30 in 10.0 mi ENE 5.8 mph - N/A   Overcast
3:07 AM 37.0 °F 31.0 °F 34.0 °F 89% 30.28 in 10.0 mi ENE 8.1 mph - N/A   Overcast
3:53 AM 37.0 °F 33.3 °F 34.0 °F 89% 30.33 in 10.0 mi ENE 4.6 mph - N/A   Overcast
4:53 AM 37.0 °F 33.3 °F 34.0 °F 89% 30.35 in 10.0 mi Variable 4.6 mph - N/A   Overcast
5:53 AM 36.0 °F 33.3 °F 33.1 °F 89% 30.37 in 10.0 mi Variable 3.5 mph - N/A   Overcast
6:19 AM 36.0 °F 32.1 °F 32.0 °F 86% 30.36 in 10.0 mi North 4.6 mph - N/A   Overcast
6:53 AM 36.0 °F 33.3 °F 30.9 °F 82% 30.41 in 10.0 mi NNE 3.5 mph - N/A   Overcast
7:53 AM 36.0 °F 30.3 °F 30.9 °F 82% 30.43 in 10.0 mi Variable 6.9 mph - N/A   Overcast
8:53 AM 37.0 °F 31.0 °F 32.0 °F 82% 30.45 in 10.0 mi NNE 8.1 mph - N/A   Overcast
9:24 AM 37.0 °F 31.0 °F 32.0 °F 82% 30.42 in 10.0 mi North 8.1 mph - N/A   Overcast
9:37 AM 37.9 °F 33.5 °F 32.0 °F 79% 30.42 in 10.0 mi Variable 5.8 mph - N/A   Overcast
9:53 AM 37.0 °F 31.6 °F 32.0 °F 82% 30.47 in 10.0 mi Variable 6.9 mph - N/A   Overcast
10:53 AM 37.9 °F 32.1 °F 32.0 °F 79% 30.47 in 10.0 mi NNE 8.1 mph - N/A   Overcast
11:53 AM 39.0 °F 32.8 °F 32.0 °F 76% 30.46 in 10.0 mi NE 9.2 mph - N/A   Overcast
12:53 PM 37.9 °F 32.1 °F 30.9 °F 76% 30.44 in 10.0 mi NNE 8.1 mph - N/A   Overcast
1:03 PM 37.9 °F 32.1 °F 30.9 °F 76% 30.40 in 10.0 mi NNE 8.1 mph - N/A   Overcast
1:53 PM 37.9 °F 32.7 °F 30.9 °F 76% 30.42 in 10.0 mi Variable 6.9 mph 17.3 mph N/A   Overcast
2:09 PM 37.9 °F 32.1 °F 30.9 °F 76% 30.39 in 10.0 mi NNE 8.1 mph - N/A   Overcast
2:35 PM 37.9 °F 32.1 °F 32.0 °F 79% 30.38 in 10.0 mi NNE 8.1 mph - N/A   Overcast
2:53 PM 37.9 °F 33.5 °F 32.0 °F 79% 30.43 in 10.0 mi NNE 5.8 mph - N/A   Overcast
3:09 PM 37.9 °F 32.7 °F 30.9 °F 76% 30.39 in 10.0 mi North 6.9 mph - N/A   Overcast
3:53 PM 37.0 °F 34.5 °F 30.9 °F 79% 30.43 in 10.0 mi Variable 3.5 mph - N/A   Overcast
4:01 PM 37.0 °F 33.3 °F 30.9 °F 79% 30.39 in 10.0 mi NNE 4.6 mph - N/A   Overcast
4:28 PM 37.0 °F 32.4 °F 30.9 °F 79% 30.40 in 10.0 mi Variable 5.8 mph - N/A   Overcast
4:53 PM 37.0 °F 33.3 °F 30.9 °F 79% 30.44 in 10.0 mi Variable 4.6 mph - N/A   Overcast
5:53 PM 36.0 °F 30.3 °F 30.9 °F 82% 30.45 in 10.0 mi Variable 6.9 mph - N/A   Overcast
6:53 PM 36.0 °F 31.1 °F 30.0 °F 79% 30.46 in 10.0 mi NNE 5.8 mph - N/A   Overcast
7:53 PM 35.1 °F 31.0 °F 30.0 °F 82% 30.46 in 10.0 mi Variable 4.6 mph - N/A   Overcast
8:53 PM 36.0 °F 29.6 °F 30.0 °F 79% 30.45 in 10.0 mi NNE 8.1 mph - N/A   Overcast
9:53 PM 35.1 °F 27.9 °F 30.0 °F 82% 30.43 in 10.0 mi NE 9.2 mph - N/A   Overcast
10:24 PM 35.1 °F 30.1 °F 30.0 °F 82% 30.38 in 10.0 mi Variable 5.8 mph - N/A   Overcast
10:53 PM 35.1 °F 30.1 °F 30.0 °F 82% 30.42 in 10.0 mi Variable 5.8 mph - N/A   Overcast
11:53 PM 35.1 °F 29.3 °F 30.9 °F 85% 30.40 in 10.0 mi NE 6.9 mph - N/A   Overcast